contact:dominique.lefevre@mio.osupytheas.fr, maurice.libes@osupytheas.fr, didier.mallarino@osupytheas.fr
Project:EMSO http://www.emso-fr.org/EMSO-France
Depth: 2436.0 m
Title:EMSO Ligure Ouest : Data MII capteur AQUADOPP
Date,Latitude,Longitude,X_East,Y_North,Z_Up,Amplitude_X,Amplitude_Y,Amplitude_Z,Batterie,SoundSpeed,Heading,Pitch,Roll,Pressure,TIS,Speed,Direction
, degrees North, degrees East, m.s-1, m.s-1,m.s-1, 1, 1, 1, Volt, m.s-1, degree, degree, degree, dbar, degree_C, m.s-1, degree
2023-03-30T00:04:03,42.805,6.029,0.063,-0.002,0.009,101.0,103.0,100.0,13.4,1505.2,330.1,-0.8,1.8,2471.46,13.28,0.063,91.8
2023-03-30T00:07:03,42.805,6.029,0.076,0.003,-0.022,101.0,103.0,100.0,13.4,1505.2,316.7,-0.8,1.8,2471.433,13.28,0.076,87.7
2023-03-30T00:10:03,42.805,6.029,0.065,-0.019,-0.003,100.0,104.0,100.0,13.4,1505.2,339.8,-0.8,1.8,2471.394,13.28,0.067,106.3
2023-03-30T00:13:03,42.805,6.029,0.04,-0.045,-0.043,100.0,102.0,100.0,13.4,1505.2,337.0,-0.7,1.8,2471.436,13.28,0.06,138.4
2023-03-30T00:16:03,42.805,6.029,0.072,-0.01,-0.013,100.0,104.0,99.0,13.4,1505.2,338.5,-0.8,1.8,2471.412,13.28,0.072,97.9
2023-03-30T00:19:03,42.805,6.029,0.057,-0.002,0.029,101.0,102.0,100.0,13.4,1505.2,325.0,-0.7,1.9,2471.384,13.28,0.057,92.0
2023-03-30T00:22:03,42.805,6.029,0.051,-0.01,-0.018,99.0,103.0,100.0,13.3,1505.2,329.2,-0.8,1.8,2471.397,13.28,0.051,101.1
2023-03-30T00:25:03,42.805,6.029,0.054,-0.002,0.008,99.0,103.0,100.0,13.4,1505.2,332.6,-0.8,1.8,2471.408,13.29,0.054,92.1
2023-03-30T00:28:03,42.805,6.029,0.068,0.002,-0.011,101.0,104.0,100.0,13.4,1505.2,331.9,-0.8,1.8,2471.395,13.29,0.068,88.3
2023-03-30T00:31:03,42.805,6.029,0.084,-0.001,0.001,100.0,104.0,100.0,13.4,1505.2,316.7,-0.8,1.8,2471.416,13.29,0.084,90.7
2023-03-30T00:34:03,42.805,6.029,0.074,-0.008,0.021,99.0,104.0,100.0,13.4,1505.2,327.3,-0.8,1.8,2471.425,13.29,0.074,96.2
2023-03-30T00:37:03,42.805,6.029,0.048,0.006,-0.008,101.0,105.0,100.0,13.4,1505.2,320.0,-0.8,1.8,2471.42,13.29,0.048,82.9
2023-03-30T00:40:03,42.805,6.029,0.068,-0.041,-0.018,101.0,103.0,99.0,13.3,1505.2,334.6,-0.8,1.8,2471.438,13.29,0.079,121.1
2023-03-30T00:43:03,42.805,6.029,0.088,0.017,0.033,101.0,104.0,100.0,13.4,1505.2,326.3,-0.7,1.8,2471.392,13.29,0.089,79.1
2023-03-30T00:46:03,42.805,6.029,0.097,-0.033,-0.002,100.0,102.0,100.0,13.4,1505.2,335.0,-0.8,1.8,2471.384,13.29,0.102,108.8
2023-03-30T00:49:03,42.805,6.029,0.055,0.0,0.022,100.0,102.0,100.0,13.3,1505.2,324.5,-0.7,1.8,2471.386,13.29,0.055,90.0
2023-03-30T00:52:03,42.805,6.029,0.031,0.046,0.086,101.0,102.0,99.0,13.3,1505.2,323.1,-0.8,1.8,2471.411,13.29,0.055,34.0
2023-03-30T00:55:03,42.805,6.029,0.059,0.001,-0.003,100.0,104.0,100.0,13.4,1505.2,342.5,-0.8,1.8,2471.371,13.28,0.059,89.0
2023-03-30T00:58:03,42.805,6.029,0.083,-0.009,0.022,102.0,103.0,102.0,13.4,1505.2,330.5,-0.8,1.8,2471.362,13.28,0.083,96.2
2023-03-30T01:04:03,42.805,6.029,0.086,0.0,0.002,103.0,104.0,102.0,13.4,1505.2,323.4,-0.8,1.8,2471.466,13.28,0.085,90.0
2023-03-30T01:07:03,42.805,6.029,0.072,0.019,0.019,101.0,104.0,102.0,13.4,1505.2,322.2,-0.8,1.8,2471.406,13.28,0.074,75.2
2023-03-30T01:10:03,42.805,6.029,0.046,-0.043,-0.059,101.0,105.0,98.0,13.4,1505.2,332.2,-0.8,1.8,2471.445,13.28,0.062,133.1
2023-03-30T01:13:03,42.805,6.029,0.073,0.006,0.011,99.0,103.0,101.0,13.4,1505.2,328.2,-0.8,1.8,2471.448,13.28,0.073,85.3
2023-03-30T01:16:03,42.805,6.029,0.109,-0.027,0.009,101.0,103.0,100.0,13.4,1505.2,333.4,-0.8,1.8,2471.386,13.28,0.112,103.9
2023-03-30T01:19:03,42.805,6.029,0.074,-0.01,0.018,99.0,103.0,101.0,13.3,1505.2,344.4,-0.8,1.8,2471.417,13.28,0.074,97.7
2023-03-30T01:22:03,42.805,6.029,0.102,0.002,0.041,101.0,105.0,100.0,13.4,1505.2,328.7,-0.8,1.8,2471.423,13.28,0.102,88.9
2023-03-30T01:25:03,42.805,6.029,0.048,-0.021,-0.017,101.0,104.0,100.0,13.3,1505.2,335.1,-0.7,1.8,2471.43,13.28,0.052,113.6
2023-03-30T01:28:03,42.805,6.029,0.074,0.004,0.017,100.0,103.0,100.0,13.4,1505.2,322.7,-0.8,1.8,2471.413,13.29,0.074,86.9
2023-03-30T01:31:03,42.805,6.029,0.115,-0.022,0.003,101.0,103.0,100.0,13.4,1505.2,327.9,-0.8,1.8,2471.437,13.29,0.117,100.8
2023-03-30T01:34:03,42.805,6.029,0.072,-0.021,0.023,100.0,103.0,101.0,13.3,1505.2,343.2,-0.8,1.8,2471.442,13.29,0.074,106.3
2023-03-30T01:37:03,42.805,6.029,0.097,0.016,0.007,101.0,104.0,100.0,13.4,1505.2,316.7,-0.8,1.8,2471.436,13.29,0.098,80.6
2023-03-30T01:40:03,42.805,6.029,0.066,0.006,0.016,100.0,103.0,100.0,13.4,1505.2,329.4,-0.8,1.8,2471.414,13.29,0.066,84.8
2023-03-30T01:43:03,42.805,6.029,0.066,0.007,0.015,99.0,104.0,101.0,13.3,1505.2,327.4,-0.7,1.8,2471.417,13.29,0.066,83.9
2023-03-30T01:46:03,42.805,6.029,0.101,-0.018,0.001,100.0,104.0,100.0,13.4,1505.2,327.2,-0.8,1.8,2471.436,13.29,0.102,100.1
2023-03-30T01:49:03,42.805,6.029,0.049,-0.003,-0.017,101.0,104.0,100.0,13.4,1505.2,329.9,-0.8,1.8,2471.421,13.29,0.049,93.5
2023-03-30T01:52:03,42.805,6.029,0.028,0.004,0.006,101.0,104.0,100.0,13.4,1505.2,335.2,-0.8,1.8,2471.407,13.29,0.028,81.9
2023-03-30T01:55:03,42.805,6.029,0.081,-0.039,-0.018,100.0,103.0,100.0,13.3,1505.2,335.7,-0.8,1.8,2471.443,13.29,0.089,115.7
2023-03-30T01:58:03,42.805,6.029,0.077,-0.006,0.018,102.0,102.0,100.0,13.4,1505.2,333.4,-0.7,1.8,2471.343,13.29,0.077,94.5
2023-03-30T02:04:03,42.805,6.029,0.047,-0.001,-0.01,100.0,102.0,100.0,13.3,1505.2,323.1,-0.8,1.8,2471.448,13.28,0.047,91.2
2023-03-30T02:07:03,42.805,6.029,0.056,0.022,0.037,101.0,103.0,99.0,13.3,1505.2,326.3,-0.7,1.8,2471.45,13.28,0.06,68.6
2023-03-30T02:10:03,42.805,6.029,0.064,-0.021,0.034,100.0,103.0,100.0,13.3,1505.2,341.9,-0.8,1.8,2471.461,13.28,0.067,108.2
2023-03-30T02:13:03,42.805,6.029,0.052,0.01,-0.001,101.0,103.0,101.0,13.4,1505.2,322.7,-0.7,1.8,2471.455,13.28,0.052,79.1
2023-03-30T02:16:03,42.805,6.029,0.063,0.013,0.052,101.0,102.0,101.0,13.4,1505.2,339.5,-0.8,1.8,2471.457,13.28,0.064,78.3
2023-03-30T02:19:03,42.805,6.029,0.081,-0.018,-0.023,99.0,104.0,100.0,13.4,1505.2,328.8,-0.8,1.8,2471.44,13.28,0.082,102.5
2023-03-30T02:22:03,42.805,6.029,0.052,0.0,0.005,99.0,103.0,100.0,13.4,1505.2,336.0,-0.8,1.8,2471.419,13.28,0.052,90.0
2023-03-30T02:25:03,42.805,6.029,0.053,0.014,-0.003,100.0,103.0,100.0,13.4,1505.2,319.6,-0.8,1.8,2471.442,13.29,0.054,75.2
2023-03-30T02:28:03,42.805,6.029,0.064,0.015,0.019,101.0,104.0,100.0,13.3,1505.2,329.1,-0.8,1.8,2471.43,13.28,0.065,76.8
2023-03-30T02:31:03,42.805,6.029,0.035,-0.014,-0.014,100.0,104.0,101.0,13.4,1505.2,328.8,-0.8,1.8,2471.406,13.29,0.037,111.8
2023-03-30T02:34:03,42.805,6.029,0.043,-0.009,0.013,100.0,103.0,100.0,13.4,1505.2,338.8,-0.8,1.8,2471.426,13.29,0.043,101.8
2023-03-30T02:37:03,42.805,6.029,0.054,0.0,-0.019,100.0,105.0,100.0,13.3,1505.2,330.1,-0.8,1.8,2471.445,13.29,0.053,90.0
2023-03-30T02:40:03,42.805,6.029,0.078,-0.004,0.047,100.0,104.0,100.0,13.4,1505.2,340.6,-0.7,1.8,2471.436,13.29,0.078,92.9
2023-03-30T02:43:03,42.805,6.029,0.084,-0.003,0.027,101.0,105.0,100.0,13.3,1505.2,331.8,-0.8,1.8,2471.428,13.29,0.084,92.0
2023-03-30T02:46:03,42.805,6.029,0.064,0.018,-0.012,101.0,104.0,100.0,13.4,1505.2,321.3,-0.7,1.8,2471.431,13.29,0.066,74.3
2023-03-30T02:49:03,42.805,6.029,0.05,-0.011,-0.014,101.0,104.0,100.0,13.3,1505.2,330.6,-0.8,1.8,2471.426,13.29,0.051,102.4
2023-03-30T02:52:03,42.805,6.029,0.07,-0.005,-0.006,100.0,103.0,99.0,13.4,1505.2,324.5,-0.8,1.8,2471.382,13.29,0.07,94.1
2023-03-30T02:55:03,42.805,6.029,0.04,-0.001,-0.01,101.0,105.0,100.0,13.4,1505.2,334.8,-0.7,1.8,2471.414,13.29,0.04,91.4
2023-03-30T02:58:03,42.805,6.029,0.088,0.017,0.044,102.0,104.0,100.0,13.4,1505.2,327.2,-0.7,1.8,2471.408,13.28,0.089,79.1
2023-03-30T03:04:03,42.805,6.029,0.062,-0.006,-0.032,101.0,103.0,100.0,13.4,1505.2,320.3,-0.8,1.8,2471.443,13.28,0.062,95.5
2023-03-30T03:07:03,42.805,6.029,0.085,0.025,0.015,99.0,104.0,99.0,13.4,1505.2,319.4,-0.8,1.8,2471.475,13.28,0.088,73.6
2023-03-30T03:10:03,42.805,6.029,0.057,-0.015,0.0,101.0,103.0,101.0,13.4,1505.2,330.6,-0.7,1.8,2471.458,13.28,0.058,104.7
2023-03-30T03:13:03,42.805,6.029,0.051,0.0,-0.004,100.0,104.0,101.0,13.4,1505.2,333.8,-0.8,1.8,2471.427,13.28,0.051,90.0
2023-03-30T03:16:03,42.805,6.029,0.069,0.037,0.03,101.0,104.0,101.0,13.4,1505.2,317.8,-0.7,1.8,2471.453,13.28,0.078,61.8
2023-03-30T03:19:03,42.805,6.029,0.077,-0.025,-0.022,100.0,103.0,100.0,13.3,1505.2,328.2,-0.8,1.8,2471.446,13.28,0.08,108.0
2023-03-30T03:22:03,42.805,6.029,0.051,-0.013,-0.009,101.0,103.0,100.0,13.4,1505.2,327.7,-0.8,1.8,2471.449,13.28,0.052,104.3
2023-03-30T03:25:03,42.805,6.029,0.083,0.01,0.029,100.0,103.0,100.0,13.4,1505.2,321.2,-0.7,1.8,2471.429,13.28,0.083,83.1
2023-03-30T03:28:03,42.805,6.029,0.056,-0.009,-0.003,100.0,103.0,99.0,13.4,1505.2,340.5,-0.7,1.8,2471.42,13.28,0.056,99.1
2023-03-30T03:31:03,42.805,6.029,0.019,0.014,-0.035,100.0,104.0,100.0,13.3,1505.2,336.5,-0.8,1.8,2471.399,13.29,0.023,53.6
2023-03-30T03:34:03,42.805,6.029,0.056,0.0,-0.03,101.0,104.0,100.0,13.4,1505.2,324.5,-0.7,1.8,2471.436,13.28,0.056,90.0
2023-03-30T03:37:03,42.805,6.029,0.065,-0.001,0.013,100.0,105.0,100.0,13.4,1505.2,341.9,-0.8,1.8,2471.427,13.29,0.065,90.9
2023-03-30T03:40:03,42.805,6.029,0.057,0.023,0.051,98.0,105.0,100.0,13.4,1505.2,331.8,-0.7,1.8,2471.456,13.29,0.061,68.0
2023-03-30T03:43:03,42.805,6.029,0.048,0.003,0.001,101.0,103.0,100.0,13.4,1505.2,330.0,-0.8,1.8,2471.416,13.29,0.048,86.4
2023-03-30T03:46:03,42.805,6.029,0.06,-0.013,-0.049,99.0,104.0,101.0,13.4,1505.2,325.3,-0.8,1.8,2471.459,13.29,0.061,102.2
2023-03-30T03:49:03,42.805,6.029,0.083,0.012,0.023,100.0,104.0,100.0,13.4,1505.2,317.9,-0.7,1.8,2471.409,13.29,0.083,81.8
2023-03-30T03:52:03,42.805,6.029,0.089,-0.003,0.0,101.0,101.0,100.0,13.4,1505.2,331.1,-0.8,1.8,2471.428,13.29,0.089,91.9
2023-03-30T03:55:03,42.805,6.029,0.036,-0.023,-0.031,99.0,103.0,99.0,13.3,1505.2,336.9,-0.8,1.8,2471.463,13.29,0.042,122.6
2023-03-30T03:58:03,42.805,6.029,0.056,-0.017,-0.016,100.0,102.0,100.0,13.4,1505.2,326.0,-0.7,1.8,2471.444,13.29,0.058,106.9
2023-03-30T04:04:03,42.805,6.029,0.075,-0.011,0.0,102.0,103.0,99.0,13.4,1505.2,321.9,-0.8,1.8,2471.486,13.28,0.075,98.3
2023-03-30T04:07:03,42.805,6.029,0.081,-0.032,-0.013,101.0,103.0,100.0,13.4,1505.2,335.9,-0.7,1.8,2471.487,13.28,0.087,111.6
2023-03-30T04:10:03,42.805,6.029,0.06,0.006,-0.003,100.0,104.0,100.0,13.4,1505.2,317.4,-0.8,1.8,2471.471,13.28,0.06,84.3
2023-03-30T04:13:03,42.805,6.029,0.05,-0.022,-0.02,99.0,104.0,99.0,13.3,1505.2,336.5,-0.7,1.9,2471.495,13.28,0.054,113.7
2023-03-30T04:16:03,42.805,6.029,0.042,-0.003,-0.007,100.0,104.0,100.0,13.4,1505.2,332.4,-0.7,1.8,2471.468,13.28,0.042,94.1
2023-03-30T04:19:03,42.805,6.029,0.087,-0.046,-0.074,102.0,103.0,100.0,13.3,1505.2,325.4,-0.8,1.9,2471.404,13.28,0.098,117.9
2023-03-30T04:22:03,42.805,6.029,0.042,-0.003,-0.031,99.0,104.0,100.0,13.3,1505.2,321.4,-0.8,1.8,2471.471,13.28,0.042,94.1
2023-03-30T04:25:03,42.805,6.029,0.076,-0.005,-0.019,100.0,103.0,100.0,13.4,1505.2,324.6,-0.8,1.8,2471.421,13.29,0.076,93.8
2023-03-30T04:28:03,42.805,6.029,0.066,0.003,0.011,100.0,104.0,100.0,13.4,1505.2,315.5,-0.8,1.8,2471.428,13.28,0.066,87.4
2023-03-30T04:31:03,42.805,6.029,0.063,-0.036,-0.021,100.0,104.0,101.0,13.4,1505.2,341.2,-0.7,1.8,2471.429,13.28,0.072,119.7
2023-03-30T04:34:03,42.805,6.029,0.067,-0.012,-0.012,100.0,104.0,100.0,13.4,1505.2,326.0,-0.8,1.8,2471.401,13.29,0.068,100.2
2023-03-30T04:37:03,42.805,6.029,0.023,-0.003,-0.001,100.0,104.0,100.0,13.4,1505.2,329.1,-0.7,1.8,2471.426,13.29,0.023,97.4
2023-03-30T04:40:03,42.805,6.029,0.054,0.016,0.036,100.0,103.0,100.0,13.4,1505.2,328.8,-0.8,1.8,2471.438,13.29,0.056,73.5
2023-03-30T04:43:03,42.805,6.029,0.026,0.029,0.044,100.0,103.0,100.0,13.4,1505.2,326.5,-0.8,1.8,2471.441,13.29,0.038,41.9
2023-03-30T04:46:03,42.805,6.029,0.076,0.01,0.013,100.0,104.0,100.0,13.4,1505.2,321.1,-0.7,1.8,2471.39,13.29,0.076,82.5
2023-03-30T04:49:03,42.805,6.029,0.052,-0.011,-0.029,99.0,104.0,100.0,13.4,1505.2,336.5,-0.8,1.8,2471.439,13.29,0.053,101.9
2023-03-30T04:52:03,42.805,6.029,0.049,0.006,-0.016,100.0,106.0,100.0,13.3,1505.2,328.0,-0.8,1.9,2471.429,13.29,0.049,83.0
2023-03-30T04:55:03,42.805,6.029,0.043,-0.02,-0.024,100.0,104.0,100.0,13.3,1505.2,324.3,-0.8,1.8,2471.435,13.29,0.047,114.9
2023-03-30T04:58:03,42.805,6.029,-0.019,-0.009,-0.098,99.0,104.0,100.0,13.4,1505.2,333.0,-0.8,1.8,2471.463,13.29,0.021,244.7
2023-03-30T05:04:03,42.805,6.029,0.084,0.014,0.064,100.0,103.0,101.0,13.3,1505.2,331.7,-0.8,1.8,2471.451,13.28,0.085,80.5
2023-03-30T05:07:03,42.805,6.029,0.052,-0.014,-0.021,100.0,105.0,101.0,13.4,1505.2,336.1,-0.8,1.8,2471.469,13.28,0.053,105.1
2023-03-30T05:10:03,42.805,6.029,0.042,0.006,0.006,100.0,105.0,100.0,13.4,1505.2,325.5,-0.8,1.9,2471.469,13.28,0.042,81.9
2023-03-30T05:13:03,42.805,6.029,0.089,-0.015,-0.026,101.0,106.0,100.0,13.4,1505.2,335.2,-0.7,1.8,2471.444,13.28,0.09,99.6
2023-03-30T05:16:03,42.805,6.029,0.046,0.022,0.002,100.0,107.0,99.0,13.3,1505.2,317.3,-0.8,1.8,2471.435,13.28,0.05,64.4
2023-03-30T05:19:03,42.805,6.029,0.023,0.002,-0.057,100.0,106.0,101.0,13.4,1505.2,318.9,-0.7,1.8,2471.45,13.28,0.023,85.0
2023-03-30T05:22:03,42.805,6.029,0.075,-0.007,0.01,99.0,104.0,101.0,13.4,1505.2,341.2,-0.8,1.8,2471.434,13.28,0.075,95.3
2023-03-30T05:25:03,42.805,6.029,0.044,0.02,0.008,100.0,106.0,100.0,13.3,1505.2,334.7,-0.8,1.8,2471.414,13.29,0.048,65.6
2023-03-30T05:28:03,42.805,6.029,0.088,0.012,0.014,100.0,107.0,99.0,13.4,1505.2,318.9,-0.8,1.8,2471.471,13.29,0.088,82.2
2023-03-30T05:31:03,42.805,6.029,0.033,0.006,-0.006,100.0,105.0,99.0,13.3,1505.2,341.9,-0.7,1.8,2471.42,13.29,0.033,79.7
2023-03-30T05:34:03,42.805,6.029,0.054,0.013,0.017,100.0,106.0,100.0,13.4,1505.2,328.4,-0.8,1.8,2471.442,13.29,0.055,76.5
2023-03-30T05:37:03,42.805,6.029,0.061,0.015,-0.007,101.0,106.0,100.0,13.4,1505.2,319.0,-0.8,1.8,2471.473,13.29,0.062,76.2
2023-03-30T05:40:03,42.805,6.029,0.029,0.024,0.018,101.0,105.0,100.0,13.4,1505.2,343.2,-0.7,1.8,2471.38,13.29,0.037,50.4
2023-03-30T05:43:03,42.805,6.029,0.024,0.036,0.025,101.0,106.0,100.0,13.4,1505.2,325.7,-0.8,1.8,2471.427,13.29,0.043,33.7
2023-03-30T05:46:03,42.805,6.029,0.022,0.018,-0.039,101.0,107.0,99.0,13.4,1505.2,335.9,-0.7,1.8,2471.419,13.29,0.028,50.7
2023-03-30T05:49:03,42.805,6.029,0.037,0.015,-0.035,100.0,108.0,99.0,13.4,1505.2,322.1,-0.7,1.8,2471.479,13.29,0.039,67.9
2023-03-30T05:52:03,42.805,6.029,0.033,0.004,-0.018,100.0,106.0,100.0,13.4,1505.2,336.8,-0.8,1.8,2471.462,13.29,0.033,83.1
2023-03-30T05:55:03,42.805,6.029,0.031,0.006,-0.007,102.0,105.0,99.0,13.4,1505.2,333.8,-0.8,1.8,2471.431,13.29,0.031,79.0
2023-03-30T05:58:03,42.805,6.029,0.054,-0.014,-0.038,102.0,105.0,100.0,13.4,1505.2,337.3,-0.8,1.8,2471.391,13.29,0.055,104.5
2023-03-30T06:04:03,42.805,6.029,0.101,0.019,0.024,101.0,107.0,99.0,13.4,1505.2,331.0,-0.8,1.9,2471.455,13.28,0.102,79.3
2023-03-30T06:07:03,42.805,6.029,0.051,-0.017,-0.047,101.0,106.0,100.0,13.4,1505.2,329.3,-0.7,1.8,2471.467,13.28,0.053,108.4
2023-03-30T06:10:03,42.805,6.029,0.043,0.013,-0.004,100.0,107.0,100.0,13.4,1505.2,338.8,-0.7,1.8,2471.45,13.28,0.044,73.2
2023-03-30T06:13:03,42.805,6.029,0.029,0.009,-0.008,100.0,108.0,99.0,13.4,1505.2,337.8,-0.8,1.8,2471.418,13.28,0.03,72.8
2023-03-30T06:16:03,42.805,6.029,0.052,-0.005,-0.024,100.0,107.0,100.0,13.3,1505.2,330.1,-0.7,1.8,2471.417,13.28,0.052,95.5
2023-03-30T06:19:03,42.805,6.029,0.069,-0.011,-0.009,101.0,106.0,100.0,13.4,1505.2,336.9,-0.8,1.8,2471.422,13.28,0.069,99.1
2023-03-30T06:22:03,42.805,6.029,0.044,0.008,-0.014,101.0,107.0,100.0,13.4,1505.2,332.0,-0.8,1.8,2471.434,13.28,0.044,79.7
2023-03-30T06:25:03,42.805,6.029,0.106,0.013,0.061,100.0,106.0,99.0,13.3,1505.2,332.2,-0.8,1.8,2471.431,13.28,0.106,83.0
2023-03-30T06:28:03,42.805,6.029,0.07,0.029,0.021,102.0,107.0,101.0,13.3,1505.2,327.4,-0.8,1.8,2471.416,13.28,0.075,67.5
2023-03-30T06:31:03,42.805,6.029,0.039,0.016,-0.023,100.0,105.0,101.0,13.3,1505.2,338.2,-0.7,1.8,2471.384,13.28,0.042,67.7
2023-03-30T06:34:03,42.805,6.029,0.041,0.028,-0.015,102.0,108.0,99.0,13.4,1505.2,330.6,-0.7,1.8,2471.418,13.29,0.049,55.7
2023-03-30T06:37:03,42.805,6.029,0.041,0.008,-0.034,99.0,106.0,99.0,13.4,1505.2,316.8,-0.8,1.8,2471.417,13.29,0.041,79.0
2023-03-30T06:40:03,42.805,6.029,0.022,0.02,-0.02,101.0,107.0,100.0,13.4,1505.2,323.8,-0.8,1.8,2471.369,13.29,0.029,47.7
2023-03-30T06:43:03,42.805,6.029,0.035,-0.006,-0.032,101.0,106.0,100.0,13.4,1505.2,341.9,-0.7,1.8,2471.411,13.29,0.035,99.7
2023-03-30T06:46:03,42.805,6.029,0.034,-0.027,-0.055,99.0,106.0,100.0,13.4,1505.2,329.7,-0.7,1.8,2471.388,13.28,0.043,128.5
2023-03-30T06:49:03,42.805,6.029,0.041,0.017,0.028,100.0,106.0,100.0,13.4,1505.2,342.8,-0.8,1.8,2471.406,13.29,0.044,67.5
2023-03-30T06:52:03,42.805,6.029,0.024,0.03,-0.008,99.0,107.0,100.0,13.4,1505.2,322.9,-0.7,1.8,2471.411,13.28,0.038,38.7
2023-03-30T06:55:03,42.805,6.029,0.072,0.002,0.011,99.0,106.0,100.0,13.4,1505.2,331.5,-0.8,1.8,2471.384,13.29,0.072,88.4
2023-03-30T06:58:03,42.805,6.029,0.074,0.011,0.01,99.0,107.0,99.0,13.4,1505.2,327.9,-0.8,1.8,2471.414,13.28,0.074,81.5
2023-03-30T07:04:03,42.805,6.029,0.063,0.003,-0.012,100.0,106.0,100.0,13.3,1505.2,328.8,-0.7,1.8,2471.459,13.28,0.063,87.3
2023-03-30T07:07:03,42.805,6.029,0.067,-0.026,-0.034,100.0,106.0,100.0,13.4,1505.2,342.8,-0.7,1.8,2471.438,13.28,0.071,111.2
2023-03-30T07:10:03,42.805,6.029,0.044,0.019,-0.015,100.0,107.0,99.0,13.4,1505.2,327.9,-0.8,1.8,2471.421,13.28,0.047,66.6
2023-03-30T07:13:03,42.805,6.029,0.068,0.027,0.026,100.0,107.0,100.0,13.3,1505.2,324.3,-0.8,1.8,2471.425,13.28,0.073,68.3
2023-03-30T07:16:03,42.805,6.029,0.001,0.052,0.011,100.0,107.0,99.0,13.4,1505.2,321.2,-0.8,1.8,2471.402,13.28,0.052,1.1
2023-03-30T07:19:03,42.805,6.029,0.051,0.016,0.011,100.0,108.0,100.0,13.3,1505.2,330.2,-0.7,1.8,2471.409,13.28,0.053,72.6
2023-03-30T07:22:03,42.805,6.029,0.041,0.043,0.024,102.0,107.0,99.0,13.4,1505.2,320.8,-0.8,1.8,2471.386,13.28,0.059,43.6
2023-03-30T07:25:03,42.805,6.029,0.076,0.005,0.002,101.0,107.0,100.0,13.3,1505.2,334.3,-0.8,1.8,2471.416,13.28,0.076,86.2
2023-03-30T07:28:03,42.805,6.029,0.036,0.044,0.006,100.0,106.0,99.0,13.4,1505.2,321.4,-0.7,1.8,2471.368,13.29,0.056,39.3
2023-03-30T07:31:03,42.805,6.029,0.06,0.021,0.013,99.0,109.0,101.0,13.4,1505.2,321.4,-0.8,1.8,2471.401,13.29,0.063,70.7
2023-03-30T07:34:03,42.805,6.029,0.059,0.016,-0.012,100.0,108.0,99.0,13.4,1505.2,335.2,-0.8,1.9,2471.407,13.28,0.061,74.8
2023-03-30T07:37:03,42.805,6.029,0.052,0.037,0.019,101.0,107.0,100.0,13.4,1505.2,325.4,-0.8,1.8,2471.393,13.29,0.063,54.6
2023-03-30T07:40:03,42.805,6.029,0.054,0.01,0.007,100.0,106.0,99.0,13.4,1505.2,332.9,-0.8,1.8,2471.355,13.28,0.054,79.5
2023-03-30T07:43:03,42.805,6.029,0.037,0.018,0.015,101.0,108.0,99.0,13.4,1505.2,328.3,-0.7,1.8,2471.377,13.29,0.041,64.1
2023-03-30T07:46:03,42.805,6.029,0.046,0.044,0.003,100.0,107.0,99.0,13.4,1505.2,322.0,-0.7,1.8,2471.361,13.29,0.063,46.3
2023-03-30T07:49:03,42.805,6.029,0.011,0.033,-0.024,101.0,106.0,100.0,13.4,1505.2,318.5,-0.7,1.8,2471.394,13.29,0.034,18.4
2023-03-30T07:52:03,42.805,6.029,0.043,0.009,-0.019,101.0,106.0,100.0,13.4,1505.2,334.2,-0.8,1.8,2471.385,13.29,0.043,78.2
2023-03-30T07:55:03,42.805,6.029,0.049,0.015,0.007,101.0,107.0,100.0,13.4,1505.2,335.8,-0.8,1.8,2471.386,13.29,0.051,73.0
2023-03-30T07:58:03,42.805,6.029,0.099,0.015,0.01,101.0,106.0,99.0,13.4,1505.2,324.1,-0.8,1.8,2471.365,13.29,0.1,81.4
2023-03-30T08:04:03,42.805,6.029,0.078,0.037,0.041,100.0,107.0,100.0,13.4,1505.2,328.8,-0.8,1.8,2471.442,13.28,0.086,64.6
2023-03-30T08:07:03,42.805,6.029,0.064,0.0,0.0,101.0,107.0,100.0,13.3,1505.2,323.1,-0.8,1.8,2471.418,13.28,0.063,90.0
2023-03-30T08:10:03,42.805,6.029,-0.001,0.041,-0.003,101.0,106.0,99.0,13.4,1505.2,328.5,-0.7,1.8,2471.374,13.28,0.041,358.6
2023-03-30T08:13:03,42.805,6.029,0.072,0.011,-0.003,101.0,106.0,101.0,13.4,1505.2,323.3,-0.8,1.8,2471.368,13.28,0.072,81.3
2023-03-30T08:16:03,42.805,6.029,0.001,0.025,-0.02,101.0,106.0,100.0,13.4,1505.2,323.6,-0.8,1.8,2471.383,13.28,0.025,2.3
2023-03-30T08:19:03,42.805,6.029,0.013,0.031,-0.025,100.0,107.0,100.0,13.3,1505.2,319.6,-0.7,1.8,2471.382,13.28,0.033,22.7
2023-03-30T08:22:03,42.805,6.029,0.085,-0.001,-0.004,101.0,107.0,100.0,13.4,1505.2,336.1,-0.7,1.8,2471.379,13.28,0.085,90.7
2023-03-30T08:25:03,42.805,6.029,0.032,0.002,-0.045,100.0,108.0,99.0,13.3,1505.2,340.6,-0.8,1.8,2471.373,13.28,0.032,86.4
2023-03-30T08:28:03,42.805,6.029,0.031,0.012,-0.019,100.0,108.0,100.0,13.3,1505.2,343.7,-0.8,1.8,2471.379,13.29,0.033,68.8
2023-03-30T08:31:03,42.805,6.029,0.061,0.0,-0.016,101.0,107.0,99.0,13.3,1505.2,329.0,-0.8,1.8,2471.396,13.29,0.06,90.0
2023-03-30T08:34:03,42.805,6.029,0.05,0.044,0.023,101.0,107.0,100.0,13.4,1505.2,326.5,-0.8,1.8,2471.358,13.28,0.066,48.7
2023-03-30T08:37:03,42.805,6.029,0.044,0.021,0.003,101.0,108.0,100.0,13.4,1505.2,333.4,-0.8,1.8,2471.386,13.28,0.048,64.5
2023-03-30T08:40:03,42.805,6.029,0.035,0.036,0.0,101.0,107.0,99.0,13.4,1505.2,327.1,-0.8,1.8,2471.374,13.29,0.05,44.2
2023-03-30T08:43:03,42.805,6.029,0.028,0.04,-0.023,101.0,107.0,100.0,13.4,1505.2,323.8,-0.8,1.8,2471.376,13.29,0.048,35.0
2023-03-30T08:46:03,42.805,6.029,0.041,0.042,0.023,101.0,108.0,100.0,13.4,1505.2,316.7,-0.7,1.8,2471.328,13.29,0.058,44.3
2023-03-30T08:49:03,42.805,6.029,0.036,-0.008,-0.025,101.0,107.0,99.0,13.3,1505.2,342.5,-0.7,1.8,2471.38,13.28,0.036,102.5
2023-03-30T08:52:03,42.805,6.029,0.034,0.014,-0.028,100.0,107.0,100.0,13.3,1505.2,331.0,-0.7,1.8,2471.401,13.29,0.036,67.6
2023-03-30T08:55:03,42.805,6.029,0.03,0.0,-0.019,100.0,106.0,100.0,13.4,1505.2,331.4,-0.8,1.8,2471.359,13.29,0.03,90.0
2023-03-30T08:58:03,42.805,6.029,0.039,0.036,0.002,100.0,107.0,100.0,13.4,1505.2,318.9,-0.8,1.8,2471.38,13.28,0.053,47.3
2023-03-30T09:04:03,42.805,6.029,0.048,0.007,-0.005,100.0,109.0,100.0,13.4,1505.2,324.5,-0.8,1.8,2471.39,13.28,0.048,81.7
2023-03-30T09:07:03,42.805,6.029,0.027,0.037,-0.009,100.0,107.0,100.0,13.4,1505.2,322.4,-0.8,1.8,2471.407,13.28,0.045,36.1
2023-03-30T09:10:03,42.805,6.029,0.033,0.018,0.0,100.0,107.0,100.0,13.4,1505.2,334.3,-0.8,1.8,2471.405,13.28,0.037,61.4
2023-03-30T09:13:03,42.805,6.029,0.021,0.0,-0.091,100.0,107.0,100.0,13.4,1505.2,317.8,-0.8,1.8,2471.397,13.28,0.021,90.0
2023-03-30T09:16:03,42.805,6.029,0.019,0.011,-0.041,100.0,106.0,100.0,13.4,1505.2,342.8,-0.8,1.8,2471.385,13.28,0.021,59.9
2023-03-30T09:19:03,42.805,6.029,0.051,0.035,0.026,101.0,108.0,100.0,13.4,1505.2,336.9,-0.8,1.8,2471.394,13.28,0.061,55.5
2023-03-30T09:22:03,42.805,6.029,0.108,0.002,0.014,100.0,108.0,100.0,13.4,1505.2,334.4,-0.8,1.8,2471.382,13.28,0.108,88.9
2023-03-30T09:25:03,42.805,6.029,0.011,0.013,-0.033,101.0,106.0,100.0,13.4,1505.2,327.0,-0.8,1.8,2471.358,13.29,0.017,40.2
2023-03-30T09:28:03,42.805,6.029,-0.022,0.041,-0.033,103.0,106.0,100.0,13.3,1505.2,317.5,-0.8,1.8,2471.343,13.29,0.046,331.8
2023-03-30T09:31:03,42.805,6.029,0.001,0.007,-0.054,99.0,107.0,99.0,13.4,1505.2,335.7,-0.8,1.8,2471.381,13.29,0.007,8.1
2023-03-30T09:34:03,42.805,6.029,0.012,-0.014,-0.1,102.0,108.0,99.0,13.3,1505.2,342.5,-0.8,1.8,2471.348,13.29,0.018,139.4
2023-03-30T09:37:03,42.805,6.029,0.017,0.035,-0.025,99.0,108.0,98.0,13.4,1505.2,319.5,-0.8,1.8,2471.345,13.28,0.038,25.9
2023-03-30T09:40:03,42.805,6.029,0.065,0.035,0.044,100.0,107.0,99.0,13.3,1505.2,330.1,-0.8,1.8,2471.404,13.29,0.073,61.7
2023-03-30T09:43:03,42.805,6.029,0.075,0.009,0.002,101.0,108.0,99.0,13.4,1505.2,339.1,-0.7,1.8,2471.366,13.29,0.075,83.2
2023-03-30T09:46:03,42.805,6.029,0.0,0.042,-0.019,101.0,106.0,100.0,13.4,1505.2,325.0,-0.8,1.8,2471.339,13.29,0.042,0.0
2023-03-30T09:49:03,42.805,6.029,0.012,0.032,-0.027,101.0,107.0,99.0,13.4,1505.2,329.9,-0.7,1.8,2471.372,13.29,0.034,20.6
2023-03-30T09:52:03,42.805,6.029,0.058,0.028,-0.003,99.0,107.0,100.0,13.3,1505.2,327.1,-0.8,1.8,2471.39,13.29,0.064,64.2
2023-03-30T09:55:03,42.805,6.029,0.042,0.018,0.032,101.0,105.0,100.0,13.4,1505.2,329.6,-0.7,1.8,2471.381,13.29,0.045,66.8
2023-03-30T09:58:03,42.805,6.029,0.051,0.034,-0.019,101.0,105.0,100.0,13.3,1505.2,324.5,-0.8,1.8,2471.338,13.29,0.061,56.3
2023-03-30T10:04:03,42.805,6.029,0.029,0.022,-0.011,101.0,107.0,99.0,13.4,1505.2,332.9,-0.8,1.8,2471.369,13.28,0.036,52.8
2023-03-30T10:07:03,42.805,6.029,0.008,-0.013,-0.088,101.0,107.0,99.0,13.4,1505.2,343.7,-0.8,1.8,2471.385,13.28,0.015,148.4